Weather History for CYYJ - January, 2014

Change the Weather History Date:

Friday, January 17, 2014

  Actual Average Record
Temperature  
Mean Temperature 40 °F -  
Max Temperature 42 °F 46 °F 51 °F (1998)
Min Temperature 37 °F 34 °F 23 °F (2012)
Degree Days  
Heating Degree Days 26    
Moisture  
Dew Point 39 °F    
Average Humidity 98    
Maximum Humidity 100    
Minimum Humidity 93    
Precipitation  
Precipitation 0.00 in 0.15 in - ()
Sea Level Pressure  
Sea Level Pressure 30.30 in    
Wind  
Wind Speed 5 mph ()    
Max Wind Speed 9 mph    
Max Gust Speed -    
Visibility 4.2 miles    
Events Fog    
Averages and records for this station are not official NWS values.
T = Trace of Precipitation, MM = Missing Value Source: Averaged Metar Reports

Daily Weather History Graph

Daily Weather History Graph

Search for Another Location

Airport or City:

Trip Planner

Search our weather history database for the weather conditions in past years. The results will help you decide how hot, cold, wet, or windy it might be!

Date:

Astronomy

Jan. 17, 2014 Rise Set
Actual Time 7:59 AM PST 4:48 PM PST
Civil Twilight 7:23 AM PST 5:24 PM PST
Nautical Twilight 6:45 AM PST 6:03 PM PST
Astronomical Twilight 6:07 AM PST 6:40 PM PST
Moon 6:53 PM PST (1/17) 8:18 AM PST (1/17)
Length of Visible Light 10h 00m
Length of Day
8h 49m
Full, 98% of the Moon is Illuminated
Jan 17
Full
Jan 23
Last Quarter
Jan 30
New
Feb 6
First Quarter
Feb 14
Full

Hourly Weather History & Observations

Time (PST) Temp. Windchill Dew Point Humidity Pressure Visibility Wind Dir Wind Speed Gust Speed Precip Events Conditions
12:00 AM 39.2 °F 35.9 °F 39.2 °F 100% 30.40 in 2.0 mi NNW 4.6 mph - N/A   Overcast
1:00 AM 39.2 °F 34.2 °F 39.2 °F 100% 30.39 in 2.0 mi West 6.9 mph - N/A   Overcast
2:00 AM 39.2 °F 34.2 °F 39.2 °F 100% 30.38 in 1.2 mi WNW 6.9 mph - N/A   Overcast
3:00 AM 39.2 °F 35.0 °F 39.2 °F 100% 30.38 in 1.2 mi North 5.8 mph - N/A   Overcast
4:00 AM 39 °F - 39 °F 98% 30.38 in 1 mi NW 4.6 mph - -   Mist
4:00 AM 39.2 °F 35.0 °F 39.2 °F 100% 30.38 in 1.5 mi NW 5.8 mph - N/A   Overcast
4:31 AM 39.2 °F 35.9 °F 39.2 °F 100% 30.38 in 1.5 mi NW 4.6 mph - N/A   Overcast
5:00 AM 37.4 °F 32.1 °F 37.4 °F 100% 30.37 in 1.5 mi West 6.9 mph - N/A   Overcast
6:00 AM 39.2 °F 34.2 °F 37.4 °F 93% 30.36 in 1.2 mi WNW 6.9 mph - N/A   Overcast
7:00 AM 39.2 °F 34.2 °F 37.4 °F 93% 30.34 in 1.5 mi West 6.9 mph - N/A   Overcast
8:00 AM 39.2 °F 34.2 °F 37.4 °F 93% 30.34 in 1.2 mi West 6.9 mph - N/A   Overcast
9:00 AM 39.2 °F - 39.2 °F 100% 30.35 in 6.0 mi NNW 2.3 mph - N/A   Overcast
9:11 AM 39.2 °F 35.0 °F 39.2 °F 100% 30.35 in 12.0 mi NW 5.8 mph - N/A   Overcast
10:00 AM 40 °F - 39 °F 94% 30.35 in 3 mi West 6.9 mph - -   Mist
10:00 AM 39.2 °F 34.2 °F 39.2 °F 100% 30.35 in 3.0 mi West 6.9 mph - N/A   Overcast
11:00 AM 41.0 °F 36.4 °F 39.2 °F 93% 30.35 in 7.0 mi NNW 6.9 mph - N/A   Overcast
11:27 AM 41.0 °F 38.0 °F 39.2 °F 93% 30.34 in 15.0 mi NNW 4.6 mph - N/A   Overcast
12:00 PM 42.8 °F - 41.0 °F 93% 30.32 in 20.0 mi NW 2.3 mph - N/A   Overcast
1:00 PM 41.0 °F 35.2 °F 39.2 °F 93% 30.30 in 15.0 mi West 9.2 mph - N/A   Overcast
2:00 PM 41.0 °F 36.4 °F 39.2 °F 93% 30.27 in 20.0 mi West 6.9 mph - N/A   Mostly Cloudy
3:00 PM 41.0 °F 36.4 °F 41.0 °F 100% 30.26 in 7.0 mi WNW 6.9 mph - N/A   Overcast
3:26 PM 41.0 °F 35.8 °F 39.2 °F 93% 30.27 in 10.0 mi NW 8.1 mph - N/A   Mostly Cloudy
4:00 PM 40 °F - 39 °F 93% 30.27 in 7 mi NW 4.6 mph - -   Scattered Clouds
4:00 PM 39.2 °F 37.0 °F 39.2 °F 100% 30.26 in 7.0 mi NW 3.5 mph - N/A   Mostly Cloudy
4:09 PM 39.2 °F 35.9 °F 39.2 °F 100% 30.26 in 3.0 mi West 4.6 mph - N/A   Mostly Cloudy
4:21 PM 39.2 °F 35.0 °F 39.2 °F 100% 30.26 in 1.0 mi WNW 5.8 mph - N/A   Mostly Cloudy
4:47 PM 39.2 °F 35.9 °F 37.4 °F 93% 30.26 in 0.6 mi West 4.6 mph - N/A   Overcast
5:00 PM 39.2 °F 35.0 °F 39.2 °F 100% 30.25 in 0.6 mi WNW 5.8 mph - N/A   Overcast
6:00 PM 39.2 °F 35.9 °F 39.2 °F 100% 30.24 in 0.6 mi NNW 4.6 mph - N/A   Overcast
6:14 PM 39.2 °F 35.0 °F 39.2 °F 100% 30.24 in 0.4 mi WNW 5.8 mph - N/A Fog Fog
6:23 PM 39.2 °F 35.0 °F 39.2 °F 100% 30.23 in 0.1 mi WNW 5.8 mph - N/A Fog Fog
7:00 PM 39.2 °F 35.0 °F 39.2 °F 100% 30.23 in 0.1 mi WNW 5.8 mph - N/A Fog Fog
8:00 PM 39.2 °F 35.9 °F 39.2 °F 100% 30.22 in 0.1 mi WNW 4.6 mph - N/A Fog Fog
9:00 PM 39.2 °F 37.0 °F 39.2 °F 100% 30.22 in 0.1 mi WNW 3.5 mph - N/A Fog Fog
10:00 PM 38 °F - 38 °F 100% 30.21 in 0 mi NW 3.5 mph - - Fog Heavy Fog
10:00 PM 37.4 °F 34.9 °F 37.4 °F 100% 30.21 in 0.1 mi WNW 3.5 mph - N/A Fog Fog
11:00 PM 37.4 °F - 37.4 °F 100% 30.20 in 0.1 mi Calm Calm - N/A Fog Fog